Columbia, MO

2:31 PM CDT on October 18, 2019 (GMT -0500)
Columbia Regional

Weather History for KCOU - September, 2019

Change the Weather History Date:

Tuesday, September 17, 2019

  Actual Average Record
Temperature  
Mean Temperature 82 °F 67 °F  
Max Temperature 93 °F 78 °F 98 °F (1895)
Min Temperature 71 °F 56 °F 37 °F (1903)
Degree Days  
Heating Degree Days 0 2  
Month to date heating degree days 0 14  
Since 1 July heating degree days 0 16  
Cooling Degree Days 17 4  
Month to date cooling degree days 196 107  
Year to date cooling degree days 1426 1190  
Growing Degree Days 32 (Base 50)    
Moisture  
Dew Point 69 °F    
Average Humidity 69    
Maximum Humidity 90    
Minimum Humidity 47    
Precipitation  
Precipitation 0.00 in 0.12 in 2.42 in (1899)
Month to date precipitation 1.27 2.18  
Year to date precipitation 34.06 31.93  
Snow  
Snow 0.00 in 0.00 in 0.00 in (2015)
Month to date snowfall 0.0 0.0  
Since 1 July snowfall 0.0 0.0  
Since 1 September snowfall 0.0 0.0  
Snow Depth 0.00 in    
Sea Level Pressure  
Sea Level Pressure 30.02 in    
Wind  
Wind Speed 6 mph (ESE)    
Max Wind Speed 10 mph    
Max Gust Speed 14 mph    
Visibility 10 miles    
Events      
T = Trace of Precipitation, MM = Missing Value Source: NWS Daily Summary

Daily Weather History Graph

Daily Weather History Graph

Search for Another Location

Airport or City:

Astronomy

Sep. 17, 2019 Rise Set
Actual Time 6:51 AM CDT 7:14 PM CDT
Civil Twilight 6:25 AM CDT 7:40 PM CDT
Nautical Twilight 5:53 AM CDT 8:12 PM CDT
Astronomical Twilight 5:21 AM CDT 8:44 PM CDT
Moon 9:19 PM CDT (9/17) 9:55 AM CDT (9/17)
Length of Visible Light 13h 15m
Length of Day
12h 22m
Waning Gibbous, 89% of the Moon is Illuminated
Sep 17
Waning Gibbous
Sep 21
Last Quarter
Sep 28
New
Oct 5
First Quarter
Oct 13
Full

Hourly Weather History & Observations

Time (CDT) Temp. Heat Index Dew Point Humidity Pressure Visibility Wind Dir Wind Speed Gust Speed Precip Events Conditions
12:54 AM 75.9 °F - 68.0 °F 76% 30.03 in 10.0 mi ESE 4.6 mph - N/A   Clear
1:54 AM 75.0 °F - 69.1 °F 82% 30.04 in 10.0 mi SE 3.5 mph - N/A   Clear
2:54 AM 73.9 °F - 69.1 °F 85% 30.03 in 10.0 mi ESE 4.6 mph - N/A   Clear
3:54 AM 72.0 °F - 68.0 °F 87% 30.04 in 10.0 mi East 5.8 mph - N/A   Clear
4:54 AM 72.0 °F - 68.0 °F 87% 30.04 in 10.0 mi East 6.9 mph - N/A   Clear
5:54 AM 72.0 °F - 68.0 °F 87% 30.05 in 10.0 mi East 5.8 mph - N/A   Clear
6:54 AM 71.1 °F - 68.0 °F 90% 30.06 in 8.0 mi ESE 6.9 mph - N/A   Clear
7:54 AM 73.0 °F - 70.0 °F 90% 30.07 in 6.0 mi ESE 6.9 mph - N/A   Clear
8:54 AM 75.9 °F - 72.0 °F 87% 30.07 in 9.0 mi ESE 5.8 mph - N/A   Clear
9:54 AM 80.1 °F 83.6 °F 71.1 °F 74% 30.07 in 10.0 mi South 4.6 mph - N/A   Clear
10:54 AM 82.9 °F 87.0 °F 70.0 °F 65% 30.07 in 10.0 mi SSE 4.6 mph - N/A   Clear
11:54 AM 87.1 °F 92.0 °F 70.0 °F 57% 30.06 in 10.0 mi Variable 3.5 mph - N/A   Clear
12:54 PM 89.1 °F 94.1 °F 70.0 °F 53% 30.05 in 10.0 mi South 5.8 mph - N/A   Clear
1:54 PM 90.0 °F 94.5 °F 69.1 °F 50% 30.03 in 10.0 mi SSE 3.5 mph - N/A   Clear
2:54 PM 91.0 °F 95.6 °F 69.1 °F 48% 30.01 in 10.0 mi SE 4.6 mph - N/A   Clear
3:54 PM 90.0 °F 93.6 °F 68.0 °F 48% 30.00 in 10.0 mi SE 4.6 mph - N/A   Partly Cloudy
4:54 PM 91.0 °F 95.2 °F 68.0 °F 47% 29.98 in 10.0 mi ESE 4.6 mph - N/A   Clear
5:54 PM 89.1 °F 94.1 °F 70.0 °F 53% 29.98 in 10.0 mi East 3.5 mph - N/A   Clear
6:54 PM 84.0 °F 89.0 °F 71.1 °F 65% 29.97 in 10.0 mi East 5.8 mph - N/A   Clear
7:54 PM 80.1 °F 83.2 °F 70.0 °F 71% 29.98 in 10.0 mi East 5.8 mph - N/A   Clear
8:54 PM 79.0 °F - 70.0 °F 74% 29.99 in 10.0 mi East 6.9 mph - N/A   Clear
9:54 PM 78.1 °F - 70.0 °F 76% 30.00 in 10.0 mi East 6.9 mph - N/A   Clear
10:54 PM 78.1 °F - 71.1 °F 79% 30.00 in 10.0 mi ESE 8.1 mph - N/A   Clear
11:54 PM 77.0 °F - 71.1 °F 82% 30.00 in 10.0 mi ESE 8.1 mph - N/A   Clear